Wetterdaten: Montag, 06.10.2014
Datum Zeit Temp. A. Feuchte A. Luftdruck Regen Wind Richtung Richtung Sonnenschein ET UV Solar Taupunkt Windchill Windben Empfang
06.10.2014 00:00 10,1 C 83 % 1014,2 hPa 0,0 l/m 0,0 km/h (0 Bft) S 182 0 min 0,000 mm 0,0 UV-I 0 W/m 7,3 C 10,1 C 0,0 km/h (0 Bft) 0,00 %
06.10.2014 00:15 9,8 C 84 % 1014,3 hPa 0,0 l/m 0,0 km/h (0 Bft) S 173 0 min 0,000 mm 0,0 UV-I 0 W/m 7,2 C 9,8 C 0,0 km/h (0 Bft) 0,00 %
06.10.2014 00:30 9,6 C 85 % 1014,1 hPa 0,0 l/m 0,0 km/h (0 Bft) S-SO 155 0 min 0,000 mm 0,0 UV-I 0 W/m 7,2 C 9,6 C 0,0 km/h (0 Bft) 0,00 %
06.10.2014 00:45 9,1 C 86 % 1014,2 hPa 0,0 l/m 0,0 km/h (0 Bft) S 177 0 min 0,000 mm 0,0 UV-I 0 W/m 6,9 C 9,1 C 0,0 km/h (0 Bft) 0,00 %
06.10.2014 01:00 9,0 C 86 % 1014,1 hPa 0,0 l/m 0,0 km/h (0 Bft) N-NO 14 0 min 0,000 mm 0,0 UV-I 0 W/m 6,8 C 9,0 C 0,0 km/h (0 Bft) 0,00 %
06.10.2014 01:15 9,1 C 87 % 1014,0 hPa 0,0 l/m 0,0 km/h (0 Bft) O 89 0 min 0,000 mm 0,0 UV-I 0 W/m 7,1 C 9,1 C 0,0 km/h (0 Bft) 0,00 %
06.10.2014 01:30 8,9 C 87 % 1014,0 hPa 0,0 l/m 0,0 km/h (0 Bft) S 176 0 min 0,000 mm 0,0 UV-I 0 W/m 6,9 C 8,9 C 0,0 km/h (0 Bft) 0,00 %
06.10.2014 01:45 8,7 C 87 % 1014,1 hPa 0,0 l/m 0,0 km/h (0 Bft) S 183 0 min 0,000 mm 0,0 UV-I 0 W/m 6,7 C 8,7 C 0,0 km/h (0 Bft) 0,00 %
06.10.2014 02:00 8,6 C 88 % 1014,1 hPa 0,0 l/m 0,0 km/h (0 Bft) S 188 0 min 0,000 mm 0,0 UV-I 0 W/m 6,7 C 8,6 C 0,0 km/h (0 Bft) 0,00 %
06.10.2014 02:15 8,4 C 88 % 1014,1 hPa 0,0 l/m 0,0 km/h (0 Bft) SO 140 0 min 0,000 mm 0,0 UV-I 0 W/m 6,5 C 8,4 C 0,0 km/h (0 Bft) 0,00 %
06.10.2014 02:30 8,5 C 87 % 1014,1 hPa 0,0 l/m 0,0 km/h (0 Bft) O-SO 115 0 min 0,000 mm 0,0 UV-I 0 W/m 6,5 C 8,5 C 0,0 km/h (0 Bft) 0,00 %
06.10.2014 02:45 8,4 C 87 % 1013,9 hPa 0,0 l/m 0,0 km/h (0 Bft) O-SO 118 0 min 0,000 mm 0,0 UV-I 0 W/m 6,4 C 8,4 C 0,0 km/h (0 Bft) 0,00 %
06.10.2014 03:00 8,4 C 87 % 1013,7 hPa 0,0 l/m 3,2 km/h (1 Bft) O 90 0 min 0,000 mm 0,0 UV-I 0 W/m 6,4 C 8,4 C 7,9 km/h (2 Bft) 0,00 %
06.10.2014 03:15 8,5 C 87 % 1013,5 hPa 0,0 l/m 3,2 km/h (1 Bft) O-SO 123 0 min 0,000 mm 0,0 UV-I 0 W/m 6,5 C 8,5 C 4,0 km/h (1 Bft) 0,00 %
06.10.2014 03:30 8,5 C 87 % 1013,5 hPa 0,0 l/m 4,0 km/h (1 Bft) S 170 0 min 0,000 mm 0,0 UV-I 0 W/m 6,5 C 8,5 C 4,0 km/h (1 Bft) 0,00 %
06.10.2014 03:45 8,4 C 88 % 1013,4 hPa 0,0 l/m 0,0 km/h (0 Bft) S 174 0 min 0,000 mm 0,0 UV-I 0 W/m 6,5 C 8,4 C 0,0 km/h (0 Bft) 0,00 %
06.10.2014 04:00 8,2 C 88 % 1013,5 hPa 0,0 l/m 0,4 km/h (0 Bft) O 87 0 min 0,000 mm 0,0 UV-I 0 W/m 6,3 C 8,2 C 4,0 km/h (1 Bft) 0,00 %
06.10.2014 04:15 8,2 C 88 % 1013,4 hPa 0,0 l/m 0,7 km/h (0 Bft) O 95 0 min 0,000 mm 0,0 UV-I 0 W/m 6,3 C 8,2 C 4,0 km/h (1 Bft) 0,00 %
06.10.2014 04:30 8,2 C 88 % 1013,5 hPa 0,0 l/m 0,0 km/h (0 Bft) O-SO 116 0 min 0,000 mm 0,0 UV-I 0 W/m 6,3 C 8,2 C 0,0 km/h (0 Bft) 0,00 %
06.10.2014 04:45 8,1 C 88 % 1013,7 hPa 0,0 l/m 0,0 km/h (0 Bft) S-SO 168 0 min 0,000 mm 0,0 UV-I 0 W/m 6,2 C 8,1 C 0,0 km/h (0 Bft) 0,00 %
06.10.2014 05:00 7,9 C 88 % 1013,5 hPa 0,0 l/m 0,0 km/h (0 Bft) S 169 0 min 0,000 mm 0,0 UV-I 0 W/m 6,0 C 7,9 C 0,0 km/h (0 Bft) 0,00 %
06.10.2014 05:15 7,5 C 88 % 1013,6 hPa 0,0 l/m 0,0 km/h (0 Bft) S 177 0 min 0,000 mm 0,0 UV-I 0 W/m 5,6 C 7,5 C 0,0 km/h (0 Bft) 0,00 %
06.10.2014 05:30 7,1 C 88 % 1013,8 hPa 0,0 l/m 0,0 km/h (0 Bft) S 182 0 min 0,000 mm 0,0 UV-I 0 W/m 5,2 C 7,1 C 0,0 km/h (0 Bft) 0,00 %
06.10.2014 05:45 7,0 C 88 % 1013,8 hPa 0,0 l/m 0,0 km/h (0 Bft) S 181 0 min 0,000 mm 0,0 UV-I 0 W/m 5,2 C 7,0 C 0,0 km/h (0 Bft) 0,00 %
06.10.2014 06:00 7,1 C 88 % 1013,8 hPa 0,0 l/m 0,0 km/h (0 Bft) O-SO 112 0 min 0,000 mm 0,0 UV-I 0 W/m 5,2 C 7,1 C 0,0 km/h (0 Bft) 0,00 %
06.10.2014 06:15 7,3 C 88 % 1013,7 hPa 0,0 l/m 0,0 km/h (0 Bft) S-SO 147 0 min 0,000 mm 0,0 UV-I 0 W/m 5,4 C 7,3 C 0,0 km/h (0 Bft) 0,00 %
06.10.2014 06:30 7,3 C 88 % 1014,0 hPa 0,0 l/m 0,0 km/h (0 Bft) O-SO 112 0 min 0,000 mm 0,0 UV-I 0 W/m 5,4 C 7,3 C 0,0 km/h (0 Bft) 0,00 %
06.10.2014 06:45 7,3 C 89 % 1013,7 hPa 0,0 l/m 0,0 km/h (0 Bft) S 178 0 min 0,000 mm 0,0 UV-I 0 W/m 5,6 C 7,3 C 0,0 km/h (0 Bft) 0,00 %
06.10.2014 07:00 7,4 C 88 % 1013,8 hPa 0,0 l/m 0,0 km/h (0 Bft) SO 134 0 min 0,000 mm 0,0 UV-I 0 W/m 5,5 C 7,4 C 0,0 km/h (0 Bft) 0,00 %
06.10.2014 07:15 8,0 C 88 % 1013,7 hPa 0,0 l/m 0,0 km/h (0 Bft) SO 146 0 min 0,000 mm 0,0 UV-I 1 W/m 6,1 C 8,0 C 0,0 km/h (0 Bft) 0,00 %
06.10.2014 07:30 8,3 C 87 % 1013,7 hPa 0,0 l/m 3,2 km/h (1 Bft) S-SO 153 0 min 0,000 mm 0,0 UV-I 17 W/m 6,3 C 8,3 C 4,0 km/h (1 Bft) 0,00 %
06.10.2014 07:45 8,7 C 86 % 1013,9 hPa 0,0 l/m 0,0 km/h (0 Bft) N 349 0 min 0,000 mm 0,0 UV-I 41 W/m 6,5 C 8,7 C 0,0 km/h (0 Bft) 0,00 %
06.10.2014 08:00 9,0 C 85 % 1013,9 hPa 0,0 l/m 0,0 km/h (0 Bft) O-NO 59 0 min 0,000 mm 1,0 UV-I 63 W/m 6,6 C 9,0 C 0,0 km/h (0 Bft) 0,00 %
06.10.2014 08:15 9,2 C 84 % 1013,6 hPa 0,0 l/m 0,0 km/h (0 Bft) O-NO 62 0 min 0,000 mm 1,0 UV-I 82 W/m 6,6 C 9,2 C 0,0 km/h (0 Bft) 0,00 %
06.10.2014 08:30 9,8 C 82 % 1013,4 hPa 0,0 l/m 1,8 km/h (1 Bft) O-SO 116 15 min 0,000 mm 1,0 UV-I 129 W/m 6,9 C 9,8 C 4,0 km/h (1 Bft) 0,00 %
06.10.2014 08:45 10,2 C 80 % 1013,6 hPa 0,0 l/m 2,9 km/h (1 Bft) O-SO 102 15 min 0,000 mm 1,0 UV-I 161 W/m 6,9 C 10,2 C 7,9 km/h (2 Bft) 0,00 %
06.10.2014 09:00 9,9 C 81 % 1013,6 hPa 0,0 l/m 4,3 km/h (1 Bft) SO 125 0 min 0,000 mm 1,0 UV-I 123 W/m 6,8 C 9,9 C 7,9 km/h (2 Bft) 0,00 %
06.10.2014 09:15 9,9 C 80 % 1013,7 hPa 0,0 l/m 1,4 km/h (1 Bft) SO 139 0 min 0,000 mm 1,0 UV-I 118 W/m 6,6 C 9,9 C 4,0 km/h (1 Bft) 0,00 %
06.10.2014 09:30 10,3 C 79 % 1013,5 hPa 0,0 l/m 0,4 km/h (0 Bft) O-NO 75 0 min 0,000 mm 2,0 UV-I 179 W/m 6,8 C 10,3 C 4,0 km/h (1 Bft) 0,00 %
06.10.2014 09:45 10,9 C 77 % 1013,7 hPa 0,0 l/m 0,7 km/h (0 Bft) O 100 15 min 0,000 mm 1,0 UV-I 217 W/m 7,0 C 10,9 C 4,0 km/h (1 Bft) 0,00 %
06.10.2014 10:00 10,8 C 78 % 1013,6 hPa 0,0 l/m 0,0 km/h (0 Bft) N-NW 344 0 min 0,000 mm 2,0 UV-I 138 W/m 7,1 C 10,8 C 0,0 km/h (0 Bft) 0,00 %
06.10.2014 10:15 11,1 C 76 % 1013,4 hPa 0,0 l/m 1,4 km/h (1 Bft) O-SO 114 0 min 0,000 mm 2,0 UV-I 143 W/m 7,0 C 11,1 C 4,0 km/h (1 Bft) 0,00 %
06.10.2014 10:30 11,2 C 77 % 1013,5 hPa 0,0 l/m 0,0 km/h (0 Bft) O-SO 120 0 min 0,000 mm 2,0 UV-I 169 W/m 7,3 C 11,2 C 0,0 km/h (0 Bft) 0,00 %
06.10.2014 10:45 11,6 C 74 % 1013,3 hPa 0,0 l/m 0,0 km/h (0 Bft) W-SW 249 0 min 0,000 mm 2,0 UV-I 165 W/m 7,1 C 11,6 C 0,0 km/h (0 Bft) 0,00 %
06.10.2014 11:00 11,9 C 74 % 1013,2 hPa 0,0 l/m 0,0 km/h (0 Bft) W-NW 286 0 min 0,000 mm 2,0 UV-I 216 W/m 7,4 C 11,9 C 0,0 km/h (0 Bft) 0,00 %
06.10.2014 11:15 12,4 C 72 % 1013,1 hPa 0,0 l/m 0,0 km/h (0 Bft) S 191 0 min 0,000 mm 2,0 UV-I 223 W/m 7,5 C 12,4 C 0,0 km/h (0 Bft) 0,00 %
06.10.2014 11:30 13,2 C 70 % 1012,8 hPa 0,0 l/m 0,0 km/h (0 Bft) S 175 0 min 0,000 mm 3,0 UV-I 225 W/m 7,9 C 13,2 C 0,0 km/h (0 Bft) 0,00 %
06.10.2014 11:45 13,2 C 69 % 1012,7 hPa 0,0 l/m 0,0 km/h (0 Bft) SO 130 0 min 0,000 mm 3,0 UV-I 303 W/m 7,6 C 13,2 C 0,0 km/h (0 Bft) 0,00 %
06.10.2014 12:00 13,2 C 70 % 1012,3 hPa 0,0 l/m 0,4 km/h (0 Bft) O 83 15 min 0,000 mm 4,0 UV-I 330 W/m 7,9 C 13,2 C 4,0 km/h (1 Bft) 0,00 %
06.10.2014 12:15 13,4 C 70 % 1011,9 hPa 0,0 l/m 0,7 km/h (0 Bft) O-NO 77 15 min 0,000 mm 3,0 UV-I 405 W/m 8,0 C 13,4 C 4,0 km/h (1 Bft) 0,00 %
06.10.2014 12:30 13,8 C 68 % 1011,8 hPa 0,0 l/m 0,7 km/h (0 Bft) O-SO 116 15 min 0,000 mm 3,0 UV-I 400 W/m 8,0 C 13,8 C 4,0 km/h (1 Bft) 0,00 %
06.10.2014 12:45 14,3 C 67 % 1011,4 hPa 0,0 l/m 0,0 km/h (0 Bft) S 177 15 min 0,000 mm 3,0 UV-I 405 W/m 8,3 C 14,3 C 0,0 km/h (0 Bft) 0,00 %
06.10.2014 13:00 14,8 C 66 % 1011,2 hPa 0,0 l/m 0,7 km/h (0 Bft) O-SO 107 15 min 0,000 mm 3,0 UV-I 410 W/m 8,5 C 14,8 C 4,0 km/h (1 Bft) 0,00 %
06.10.2014 13:15 14,7 C 67 % 1010,9 hPa 0,0 l/m 1,4 km/h (1 Bft) N-NW 343 15 min 0,000 mm 2,0 UV-I 415 W/m 8,6 C 14,7 C 4,0 km/h (1 Bft) 0,00 %
06.10.2014 13:30 15,1 C 66 % 1010,6 hPa 0,0 l/m 1,8 km/h (1 Bft) O-SO 114 15 min 0,000 mm 2,0 UV-I 420 W/m 8,8 C 15,1 C 4,0 km/h (1 Bft) 0,00 %
06.10.2014 13:45 15,3 C 64 % 1010,5 hPa 0,0 l/m 4,3 km/h (1 Bft) O-SO 111 15 min 0,000 mm 2,0 UV-I 430 W/m 8,5 C 15,3 C 7,9 km/h (2 Bft) 0,00 %
06.10.2014 14:00 15,5 C 64 % 1010,0 hPa 0,0 l/m 0,7 km/h (0 Bft) N 353 15 min 0,000 mm 2,0 UV-I 425 W/m 8,7 C 15,5 C 4,0 km/h (1 Bft) 0,00 %
06.10.2014 14:15 15,6 C 63 % 1010,0 hPa 0,0 l/m 0,0 km/h (0 Bft) O 94 15 min 0,000 mm 2,0 UV-I 420 W/m 8,6 C 15,6 C 0,0 km/h (0 Bft) 0,00 %
06.10.2014 14:30 15,9 C 62 % 1009,9 hPa 0,0 l/m 0,7 km/h (0 Bft) O 91 15 min 0,000 mm 2,0 UV-I 415 W/m 8,6 C 15,9 C 4,0 km/h (1 Bft) 0,00 %
06.10.2014 14:45 16,0 C 62 % 1009,6 hPa 0,0 l/m 1,4 km/h (1 Bft) O-SO 113 15 min 0,000 mm 2,0 UV-I 433 W/m 8,7 C 16,0 C 4,0 km/h (1 Bft) 0,00 %
06.10.2014 15:00 16,3 C 61 % 1009,2 hPa 0,0 l/m 8,3 km/h (2 Bft) O 99 15 min 0,000 mm 2,0 UV-I 422 W/m 8,8 C 15,3 C 11,9 km/h (2 Bft) 0,00 %
06.10.2014 15:15 16,3 C 61 % 1009,3 hPa 0,0 l/m 0,7 km/h (0 Bft) SO 130 15 min 0,000 mm 2,0 UV-I 433 W/m 8,8 C 16,3 C 4,0 km/h (1 Bft) 0,00 %
06.10.2014 15:30 16,5 C 60 % 1008,8 hPa 0,0 l/m 5,4 km/h (1 Bft) O 92 15 min 0,000 mm 2,0 UV-I 430 W/m 8,7 C 16,5 C 7,9 km/h (2 Bft) 0,00 %
06.10.2014 15:45 16,7 C 60 % 1008,8 hPa 0,0 l/m 2,9 km/h (1 Bft) O-SO 109 15 min 0,000 mm 2,0 UV-I 425 W/m 8,9 C 16,7 C 4,0 km/h (1 Bft) 0,00 %
06.10.2014 16:00 16,8 C 60 % 1008,8 hPa 0,0 l/m 8,3 km/h (2 Bft) O-SO 102 15 min 0,000 mm 2,0 UV-I 420 W/m 9,0 C 15,8 C 11,9 km/h (2 Bft) 0,00 %
06.10.2014 16:15 16,9 C 58 % 1008,6 hPa 0,0 l/m 1,8 km/h (1 Bft) NO 56 15 min 0,000 mm 1,0 UV-I 410 W/m 8,6 C 16,9 C 4,0 km/h (1 Bft) 0,00 %
06.10.2014 16:30 16,8 C 59 % 1008,7 hPa 0,0 l/m 7,2 km/h (2 Bft) O 101 15 min 0,000 mm 1,0 UV-I 390 W/m 8,7 C 16,4 C 7,9 km/h (2 Bft) 0,00 %
06.10.2014 16:45 17,0 C 59 % 1008,5 hPa 0,0 l/m 10,8 km/h (2 Bft) O-SO 110 15 min 0,000 mm 1,0 UV-I 362 W/m 8,9 C 15,0 C 15,8 km/h (3 Bft) 0,00 %
06.10.2014 17:00 17,2 C 58 % 1008,4 hPa 0,0 l/m 0,0 km/h (0 Bft) O-NO 71 15 min 0,000 mm 1,0 UV-I 325 W/m 8,9 C 17,2 C 0,0 km/h (0 Bft) 0,00 %
06.10.2014 17:15 17,1 C 59 % 1008,4 hPa 0,0 l/m 8,3 km/h (2 Bft) O 81 15 min 0,000 mm 1,0 UV-I 276 W/m 9,0 C 16,2 C 11,9 km/h (2 Bft) 0,00 %
06.10.2014 17:30 16,9 C 59 % 1008,6 hPa 0,0 l/m 2,2 km/h (1 Bft) O 90 15 min 0,000 mm 1,0 UV-I 209 W/m 8,8 C 16,9 C 4,0 km/h (1 Bft) 0,00 %
06.10.2014 17:45 16,5 C 61 % 1008,6 hPa 0,0 l/m 0,0 km/h (0 Bft) O-SO 115 15 min 0,000 mm 0,0 UV-I 142 W/m 9,0 C 16,5 C 0,0 km/h (0 Bft) 0,00 %
06.10.2014 18:00 15,8 C 63 % 1008,9 hPa 0,0 l/m 0,4 km/h (0 Bft) O-SO 112 0 min 0,000 mm 0,0 UV-I 43 W/m 8,8 C 15,8 C 4,0 km/h (1 Bft) 0,00 %
06.10.2014 18:15 15,1 C 65 % 1009,0 hPa 0,0 l/m 2,9 km/h (1 Bft) O 97 15 min 0,000 mm 0,0 UV-I 21 W/m 8,6 C 15,1 C 4,0 km/h (1 Bft) 0,00 %
06.10.2014 18:30 14,6 C 68 % 1008,9 hPa 0,0 l/m 0,0 km/h (0 Bft) SO 139 0 min 0,000 mm 0,0 UV-I 4 W/m 8,8 C 14,6 C 0,0 km/h (0 Bft) 0,00 %
06.10.2014 18:45 14,1 C 69 % 1009,1 hPa 0,0 l/m 0,7 km/h (0 Bft) O 97 0 min 0,000 mm 0,0 UV-I 0 W/m 8,5 C 14,1 C 4,0 km/h (1 Bft) 0,00 %
06.10.2014 19:00 13,7 C 69 % 1009,2 hPa 0,0 l/m 0,0 km/h (0 Bft) O-SO 116 0 min 0,000 mm 0,0 UV-I 0 W/m 8,1 C 13,7 C 0,0 km/h (0 Bft) 0,00 %
06.10.2014 19:15 13,3 C 71 % 1009,1 hPa 0,0 l/m 0,7 km/h (0 Bft) SO 138 0 min 0,000 mm 0,0 UV-I 0 W/m 8,2 C 13,3 C 4,0 km/h (1 Bft) 0,00 %
06.10.2014 19:30 13,1 C 72 % 1009,3 hPa 0,0 l/m 0,0 km/h (0 Bft) S-SO 153 0 min 0,000 mm 0,0 UV-I 0 W/m 8,2 C 13,1 C 0,0 km/h (0 Bft) 0,00 %
06.10.2014 19:45 12,8 C 72 % 1009,3 hPa 0,0 l/m 0,0 km/h (0 Bft) O 97 0 min 0,000 mm 0,0 UV-I 0 W/m 7,9 C 12,8 C 0,0 km/h (0 Bft) 0,00 %
06.10.2014 20:00 12,6 C 72 % 1009,3 hPa 0,0 l/m 1,4 km/h (1 Bft) O-NO 77 0 min 0,000 mm 0,0 UV-I 0 W/m 7,7 C 12,6 C 4,0 km/h (1 Bft) 0,00 %
06.10.2014 20:15 12,2 C 73 % 1009,6 hPa 0,0 l/m 0,0 km/h (0 Bft) S-SO 154 0 min 0,000 mm 0,0 UV-I 0 W/m 7,5 C 12,2 C 0,0 km/h (0 Bft) 0,00 %
06.10.2014 20:30 12,0 C 73 % 1009,3 hPa 0,0 l/m 0,0 km/h (0 Bft) O 89 0 min 0,000 mm 0,0 UV-I 0 W/m 7,3 C 12,0 C 0,0 km/h (0 Bft) 0,00 %
06.10.2014 20:45 11,7 C 73 % 1009,6 hPa 0,0 l/m 0,0 km/h (0 Bft) O-NO 67 0 min 0,000 mm 0,0 UV-I 0 W/m 7,0 C 11,7 C 0,0 km/h (0 Bft) 0,00 %
06.10.2014 21:00 11,4 C 75 % 1009,6 hPa 0,0 l/m 0,0 km/h (0 Bft) S 172 0 min 0,000 mm 0,0 UV-I 0 W/m 7,1 C 11,4 C 0,0 km/h (0 Bft) 0,00 %
06.10.2014 21:15 11,0 C 77 % 1009,6 hPa 0,0 l/m 0,0 km/h (0 Bft) SO 144 0 min 0,000 mm 0,0 UV-I 0 W/m 7,1 C 11,0 C 0,0 km/h (0 Bft) 0,00 %
06.10.2014 21:30 10,8 C 78 % 1010,0 hPa 0,0 l/m 0,0 km/h (0 Bft) O-SO 107 0 min 0,000 mm 0,0 UV-I 0 W/m 7,1 C 10,8 C 0,0 km/h (0 Bft) 0,00 %
06.10.2014 21:45 10,4 C 79 % 1009,8 hPa 0,0 l/m 0,0 km/h (0 Bft) O-SO 110 0 min 0,000 mm 0,0 UV-I 0 W/m 6,9 C 10,4 C 0,0 km/h (0 Bft) 0,00 %
06.10.2014 22:00 10,4 C 79 % 1009,8 hPa 0,0 l/m 0,0 km/h (0 Bft) SO 129 0 min 0,000 mm 0,0 UV-I 0 W/m 6,9 C 10,4 C 0,0 km/h (0 Bft) 0,00 %
06.10.2014 22:15 10,1 C 80 % 1009,9 hPa 0,0 l/m 0,0 km/h (0 Bft) S-SO 148 0 min 0,000 mm 0,0 UV-I 0 W/m 6,8 C 10,1 C 0,0 km/h (0 Bft) 0,00 %
06.10.2014 22:30 10,0 C 81 % 1010,1 hPa 0,0 l/m 0,0 km/h (0 Bft) SO 135 0 min 0,000 mm 0,0 UV-I 0 W/m 6,9 C 10,0 C 0,0 km/h (0 Bft) 0,00 %
06.10.2014 22:45 9,7 C 82 % 1009,8 hPa 0,0 l/m 0,0 km/h (0 Bft) SO 140 0 min 0,000 mm 0,0 UV-I 0 W/m 6,8 C 9,7 C 0,0 km/h (0 Bft) 0,00 %
06.10.2014 23:00 9,3 C 83 % 1010,1 hPa 0,0 l/m 0,0 km/h (0 Bft) S-SO 158 0 min 0,000 mm 0,0 UV-I 0 W/m 6,6 C 9,3 C 0,0 km/h (0 Bft) 0,00 %
06.10.2014 23:15 9,2 C 83 % 1010,0 hPa 0,0 l/m 0,0 km/h (0 Bft) S-SO 151 0 min 0,000 mm 0,0 UV-I 0 W/m 6,5 C 9,2 C 0,0 km/h (0 Bft) 0,00 %
06.10.2014 23:30 9,1 C 83 % 1010,0 hPa 0,0 l/m 0,0 km/h (0 Bft) O-SO 114 0 min 0,000 mm 0,0 UV-I 0 W/m 6,4 C 9,1 C 0,0 km/h (0 Bft) 0,00 %
06.10.2014 23:45 9,1 C 83 % 1009,9 hPa 0,0 l/m 0,0 km/h (0 Bft) SO 133 0 min 0,000 mm 0,0 UV-I 0 W/m 6,4 C 9,1 C 0,0 km/h (0 Bft) 0,00 %
_ Min-Zeit 05:45 16:15 17:00 - 00:00 - - - - - - 05:45 05:45 00:00 00:00
Minimum _ 7,0 C 58 % 1008,4 hPa - 0,0 km/h (0 Bft) - - - - - - 5,2 C 7,0 C 0,0 km/h (0 Bft) 0,00 %
_ Max-Zeit 17:00 06:45 00:15 00:00 16:45 - - 08:30 00:00 12:00 14:45 17:15 17:00 16:45 00:00
Maximum _ 17,2 C 89 % 1014,3 hPa 0,0 l/m 10,8 km/h
O-SO (2 Bft)
- - 15 min 0,000 mm 4,0 UV-I 433 W/m 9,0 C 17,2 C 15,8 km/h
O-SO (3 Bft)
0,00 %
Durchschnitt _ 11,5 C 76 % 1011,7 hPa #0,0 l/m 1,1 km/h (0 Bft) O-SO - #7:00 h #0,000 mm 1,9 UV-I 259 W/m 7,3 C 11,4 C 2,2 km/h (1 Bft) 0,00 %